Waarnemingen

Advertentie
Mijn weer
Marina Di Ginosa, Italië (16325): temperatuur & dauwpunt: 16.07.2018 18:00:00 - 22.07.2018 18:00:00 (CEST)Marina Di Ginosa, Italië (16325): windsnelheid: 16.07.2018 18:00:00 - 22.07.2018 18:00:00 (CEST)Marina Di Ginosa, Italië (16325): windrichting: 16.07.2018 18:00:00 - 22.07.2018 18:00:00 (CEST)Marina Di Ginosa, Italië (16325): luchtdruk: 16.07.2018 18:00:00 - 22.07.2018 18:00:00 (CEST)Marina Di Ginosa, Italië (16325): zicht: 16.07.2018 18:00:00 - 22.07.2018 18:00:00 (CEST)
Datum & Tijd tt [°C] td [°C] ff [km/u] ff [kn] dd ppp [hPa] vv [km]
22.07.2018 18:00:00 32,0 23,0 9 5 ONO - 10
22.07.2018 17:00:00 37,2 20,1 13 7 NNO 1008,2 12
22.07.2018 16:00:00 35,0 28,0 22 12 ZZW - 10
22.07.2018 15:00:00 33,0 25,0 18 10 OZO - 10
22.07.2018 14:00:00 32,2 25,3 13 7 O 1009,4 12
22.07.2018 13:00:00 32,0 26,0 15 8 O - 10
22.07.2018 12:00:00 32,0 25,0 9 5 OZO - 10
22.07.2018 11:00:00 31,8 23,9 8 4 OZO 1009,4 10
22.07.2018 10:00:00 30,0 25,0 9 5 O - 10
22.07.2018 09:00:00 29,0 23,0 5 3 NW - 10
22.07.2018 08:00:00 27,0 23,0 11 6 Z 1009,5 10
22.07.2018 07:00:00 23,0 20,0 9 5 NW - 10
22.07.2018 06:00:00 23,0 20,0 8 4 WNW - 10
22.07.2018 05:00:00 23,2 20,0 11 6 N 1009,4 20
22.07.2018 04:00:00 25,0 22,0 11 6 NNW - 10
22.07.2018 03:00:00 24,0 22,0 9 5 N - 10
22.07.2018 02:00:00 25,0 23,1 5 3 ZW 1009,4 20
22.07.2018 01:00:00 25,0 23,0 8 4 NNW - 10
22.07.2018 00:00:00 27,0 25,0 9 5 ZZO - 10
21.07.2018 23:00:00 26,2 23,1 0 0 N 1011,0 20
21.07.2018 22:00:00 28,0 24,0 11 6 O - 10
21.07.2018 21:00:00 27,0 25,0 8 4 ZO - 10
21.07.2018 20:00:00 29,2 25,8 8 4 ZZW 1011,6 18
21.07.2018 19:00:00 29,0 26,0 11 6 Z - 10
21.07.2018 18:00:00 31,0 26,0 9 5 Z - 10
21.07.2018 17:00:00 32,0 25,8 8 4 ZO 1012,4 18
21.07.2018 16:00:00 32,0 26,0 11 6 ZZO - 10
21.07.2018 15:00:00 32,0 25,0 11 6 ZZO - 10
21.07.2018 14:00:00 32,6 23,8 16 9 ZZO 1012,7 18
21.07.2018 13:00:00 33,0 24,0 13 7 ZZO - 10
21.07.2018 12:00:00 33,0 24,0 13 7 ZZO - 10
21.07.2018 11:00:00 33,0 22,5 11 6 ZZO 1013,1 18
21.07.2018 10:00:00 32,0 20,0 5 3 Z - 10
21.07.2018 09:00:00 30,0 18,0 9 5 WNW - 10
21.07.2018 08:00:00 25,6 15,3 8 4 ONO 1012,7 20
21.07.2018 07:00:00 22,0 14,0 8 4 NW - 10
21.07.2018 06:00:00 20,0 13,0 8 4 WNW - 10
21.07.2018 05:00:00 20,4 13,1 9 5 NW 1012,3 20
21.07.2018 04:00:00 21,0 13,0 5 3 NW - 10
21.07.2018 03:00:00 21,0 13,0 4 2 WNW - 10
21.07.2018 02:00:00 22,0 12,8 4 2 NNW 1012,8 20
21.07.2018 01:00:00 22,0 12,0 8 4 NW - 10
21.07.2018 00:00:00 24,0 12,0 9 5 W - 10
20.07.2018 23:00:00 25,0 11,2 9 5 NNW 1012,3 20
20.07.2018 22:00:00 27,0 11,0 9 5 N - 10
20.07.2018 21:00:00 28,0 11,0 8 4 NNW - 10
20.07.2018 20:00:00 31,4 10,2 11 6 NNO 1011,3 30
20.07.2018 19:00:00 33,0 10,0 16 9 ZW - 10
20.07.2018 18:00:00 34,0 11,0 24 13 NNO - 10
20.07.2018 17:00:00 36,0 12,9 22 12 NNO 1011,1 30
20.07.2018 16:00:00 36,0 14,0 22 12 N - 10
20.07.2018 15:00:00 37,0 15,0 21 11 NNO - 10
20.07.2018 14:00:00 36,8 15,3 21 11 N 1011,5 20
20.07.2018 13:00:00 36,0 17,0 21 11 ONO - 10
20.07.2018 12:00:00 36,0 16,0 13 7 NNW - 10
20.07.2018 11:00:00 35,6 15,9 16 9 NW 1012,1 20
20.07.2018 10:00:00 34,0 17,0 9 5 NW - 10
20.07.2018 09:00:00 30,0 17,0 11 6 WNW - 10
20.07.2018 08:00:00 27,0 19,1 13 7 W 1011,8 20
20.07.2018 07:00:00 25,0 18,0 11 6 W - 10
20.07.2018 06:00:00 - - - - - - -
20.07.2018 05:00:00 21,2 15,5 9 5 WNW 1012,2 25
20.07.2018 04:00:00 - - - - - - -
20.07.2018 03:00:00 - - - - - - -
20.07.2018 02:00:00 23,0 12,0 11 6 WNW - 10
20.07.2018 01:00:00 23,0 12,0 11 6 WNW - 10
20.07.2018 00:00:00 25,0 13,0 11 6 WNW - 10
19.07.2018 23:00:00 26,0 12,8 8 4 WNW 1012,3 20
19.07.2018 22:00:00 26,0 12,0 5 3 N - 10
19.07.2018 21:00:00 29,0 12,0 5 3 NW - 10
19.07.2018 20:00:00 31,6 10,9 5 3 NNW 1011,1 20
19.07.2018 19:00:00 33,0 10,0 16 9 NNO - 10
19.07.2018 18:00:00 35,0 7,0 18 10 N - 10
19.07.2018 17:00:00 37,0 7,9 16 9 N 1011,2 20
19.07.2018 16:00:00 37,0 8,0 15 8 NNW - 10
19.07.2018 15:00:00 37,0 8,0 21 11 NNW - 10
19.07.2018 14:00:00 37,0 11,1 16 9 N 1011,6 20
19.07.2018 13:00:00 36,0 11,0 18 10 N - 10
19.07.2018 12:00:00 36,0 13,0 18 10 ZZW - 10
19.07.2018 11:00:00 32,6 20,8 5 3 ZZW 1012,3 20
19.07.2018 10:00:00 33,0 17,0 15 8 WNW - 10
19.07.2018 09:00:00 30,0 17,0 13 7 NW - 10
19.07.2018 08:00:00 24,2 16,0 8 4 W 1012,4 20
19.07.2018 07:00:00 21,0 14,0 9 5 WNW - 10
19.07.2018 06:00:00 19,0 13,0 9 5 W - 10
19.07.2018 05:00:00 20,0 13,9 11 6 NW 1012,4 20
19.07.2018 04:00:00 21,0 14,0 28 15 WNW - 10
19.07.2018 03:00:00 21,0 13,0 11 6 NW - 10
19.07.2018 02:00:00 21,0 13,4 11 6 WNW 1012,4 20
19.07.2018 01:00:00 22,0 12,0 11 6 W - 10
19.07.2018 00:00:00 23,0 12,0 9 5 W - 10
18.07.2018 23:00:00 25,8 13,3 11 6 NW 1012,3 25
18.07.2018 22:00:00 27,0 12,0 11 6 NW - 10
18.07.2018 21:00:00 28,0 11,0 9 5 N - 10
18.07.2018 20:00:00 30,2 9,7 13 7 N 1011,7 30
18.07.2018 19:00:00 32,0 10,0 18 10 N - 10
18.07.2018 18:00:00 33,0 10,0 22 12 N - 10
18.07.2018 17:00:00 34,2 10,8 22 12 N 1011,7 20
18.07.2018 16:00:00 34,0 11,0 18 10 NNW - 10
18.07.2018 15:00:00 34,0 12,0 24 13 N - 10
18.07.2018 14:00:00 33,6 12,0 22 12 N 1011,9 25
18.07.2018 13:00:00 34,0 14,0 22 12 NNW - 10
18.07.2018 12:00:00 33,0 14,0 21 11 N - 10
18.07.2018 11:00:00 32,6 15,6 21 11 NNW 1012,1 20
18.07.2018 10:00:00 30,0 17,0 21 11 WNW - 10
18.07.2018 09:00:00 28,0 18,0 22 12 WNW - 10
18.07.2018 08:00:00 26,0 17,9 16 9 WNW 1011,6 18
18.07.2018 07:00:00 24,0 18,0 13 7 WNW - 10
18.07.2018 06:00:00 22,0 19,0 15 8 WNW - 10
18.07.2018 05:00:00 22,0 19,0 11 6 W 1011,5 18
18.07.2018 04:00:00 22,0 19,0 11 6 W - 10
18.07.2018 03:00:00 22,0 21,0 9 5 WNW - 10
18.07.2018 02:00:00 23,0 20,7 15 8 W 1011,6 18
18.07.2018 01:00:00 22,0 19,0 11 6 W - 10
18.07.2018 00:00:00 23,0 19,0 11 6 WNW - 10
17.07.2018 23:00:00 23,0 18,8 8 4 NW 1011,4 18
17.07.2018 22:00:00 24,0 19,0 11 6 WNW - 10
17.07.2018 21:00:00 25,0 19,0 8 4 NW - 10
17.07.2018 20:00:00 27,0 18,6 11 6 N 1009,4 20
17.07.2018 19:00:00 27,0 18,0 11 6 N - 10
17.07.2018 18:00:00 27,0 19,0 15 8 N - 10
17.07.2018 17:00:00 26,2 17,6 16 9 N 1009,3 20
17.07.2018 16:00:00 25,0 20,0 13 7 NNO - 10
17.07.2018 15:00:00 26,0 22,0 8 4 ONO - 10
17.07.2018 14:00:00 24,8 17,8 16 9 NO 1008,4 15
17.07.2018 13:00:00 27,0 24,0 4 2 W - 10
17.07.2018 12:00:00 29,0 23,0 8 4 Z - 10
17.07.2018 11:00:00 31,2 22,5 9 5 ZO 1008,3 20
17.07.2018 10:00:00 30,0 21,0 5 3 ONO - 10
17.07.2018 09:00:00 28,0 22,0 11 6 NNW - 10
17.07.2018 08:00:00 27,4 20,5 11 6 N 1009,2 20
17.07.2018 07:00:00 26,0 21,0 11 6 WNW - 10
17.07.2018 06:00:00 25,0 18,0 13 7 NNW - 10
17.07.2018 05:00:00 23,6 18,5 11 6 NW 1009,4 20
17.07.2018 04:00:00 25,0 22,0 8 4 N - 10
17.07.2018 03:00:00 25,0 23,0 5 3 NNO - 10
17.07.2018 02:00:00 25,0 22,3 9 5 NNW 1010,1 20
17.07.2018 01:00:00 25,0 24,0 8 4 NW - 10
17.07.2018 00:00:00 26,0 24,0 5 3 W - 10
16.07.2018 23:00:00 27,0 25,8 8 4 ONO 1010,5 20
16.07.2018 22:00:00 27,0 25,0 5 3 Z - 10
16.07.2018 21:00:00 28,0 26,0 9 5 OZO - 10
16.07.2018 20:00:00 28,0 25,6 8 4 ONO 1012,4 18
16.07.2018 19:00:00 29,0 26,0 4 2 Z - 10
16.07.2018 18:00:00 35,0 31,0 8 4 O - 10

tt = temperatuur
td = dauwpunt
ff = windsnelheid
dd = windrichting
ppp = luchtdruk
vv = zicht

Weerstations in de omgeving